Flag for Germany Weather past 2 weeks in Steinfurt, North Rhine-Westphalia, Germany

Now
75 °F

Mild.


Feels Like: 78 °F
Forecast: 58 / 78 °F
Wind: 3 mph from Southwest

Location: Rheine-Bentlage

Current Time: Jul 31, 2014 at 8:39:25 PM

Latest Report: Jul 31, 2014 at 7:20 PM


Visibility: N/A

Pressure: 29.95 "Hg

Humidity: 50%

Dew point: 55 °F

Location of SteinfurtLocation

Historic Weather in Steinfurt — Graph

°F

Steinfurt temperature yesterday

Maximum temperature yesterday: 73 °F (at 2:20 PM)
Minimum temperature yesterday: 61 °F (at 6:20 AM)
Average temperature yesterday: 68 °F

Past Weeks' High & Low Weather Summary

 TemperatureHumidityPressure
High91 °F (Jul 19, 2:20 PM)100% (Jul 16, 10:20 PM)30.18 "Hg (Jul 16, 10:20 PM)
Low54 °F (Jul 31, 5:20 AM)28% (Jul 19, 4:20 PM)29.74 "Hg (Jul 20, 5:20 AM)
Average70 °F78%29.96 "Hg
* Reported Jul 16 7:20 PM — Jul 31 7:20 PM, Steinfurt, Weather by CustomWeather, © 2014

Note: Actual official high and low records may vary slightly from our data, if they occured in-between our weather recording intervals... More about our weather records

Advertising

Steinfurt weather history for previous 24 hours

 ConditionsComfort  
Time TempWeatherWind HumidityBarometerVisibility
7:20 PM
Jul 31
75 °FMild.3 mph50%29.95 "HgN/A
6:20 PM75 °FMild.6 mph50%29.95 "HgN/A
5:20 PM75 °FMild.6 mph50%29.95 "HgN/A
4:20 PM75 °FMild.5 mph50%29.98 "HgN/A
3:20 PM73 °FPassing clouds.5 mph53%29.98 "HgN/A
2:20 PM72 °FPassing clouds.5 mph61%29.98 "HgN/A
1:20 PM72 °FPassing clouds.3 mph57%29.98 "HgN/A
12:20 PM70 °FPassing clouds.6 mph60%30.01 "HgN/A
11:20 AM68 °FPassing clouds.5 mph64%30.01 "HgN/A
10:20 AM64 °FPassing clouds.5 mph78%30.01 "HgN/A
9:20 AM63 °FPassing clouds.2 mph83%30.01 "HgN/A
8:20 AM61 °FPassing clouds.3 mph83%30.01 "HgN/A
7:20 AM57 °FFog.2 mph94%30.01 "HgN/A
6:20 AM55 °FFog.3 mph94%30.01 "Hg5 mi
5:20 AM54 °FFog.1 mph100%29.98 "HgN/A
4:20 AM55 °FCool.2 mph94%29.98 "Hg3 mi
3:20 AM55 °FCool.3 mph100%29.98 "Hg3 mi
2:20 AM55 °FCool.3 mph94%29.98 "Hg4 mi
1:20 AM59 °FCool.3 mph88%29.98 "Hg4 mi
12:20 AM61 °FCool.6 mph88%29.98 "Hg5 mi
11:20 PM
Jul 30
63 °FMild.3 mph83%29.95 "Hg5 mi
10:20 PM66 °FMild.6 mph78%29.95 "Hg5 mi
9:20 PM68 °FMild.9 mph69%29.92 "HgN/A
8:20 PM72 °FMild.9 mph61%29.92 "HgN/A
Weather by CustomWeather, © 2014

See weather overviewHow to use our weather pages